Weather in Kulikovo

Russia / Republic of Mordovia     54°24′37″N   43°38′54″E
temp.,
°C
wind,
m/s
gust,
m/s
humid.,
%
clouds,
%
prec.,
mm/h
press.,
hPa
HPBL,
m
5 march, fri
fri500:00−3nw1295100 0.2 99932
03:00−4n2297100 1.0 100069
06:00−5nnw2497100 0.8 1001109
09:00−6nw3694100 1.1 1004315
12:00−4wnw359185 0.0 1007467
15:00−3w368681 0.1 1008528
18:00−7wsw459012 0.0 101076
21:00−8w499451 0.1 1012186
6 march, sat
sat600:00−10w479457 0.0 1013109
03:00−13wnw349528 0.0 101647
06:00−16wnw22940 0.0 101620
09:00−13wsw22910 0.0 101752
12:00−9wsw23890 0.0 1017244
15:00−6sw249038 0.0 1015323
18:00−10wsw239166 0.0 101522
21:00−11w339356 0.0 101528
7 march, sun
sun700:00−11wnw229689 0.1 101423
03:00−15w239379 0.1 101420
06:00−16sw349720 0.0 101342
09:00−12sw6119344 0.0 1010285
12:00−6sw8138299 0.0 1006818
15:00−5ssw91581100 0.0 10021042
18:00−5sw91594100 1.1 9981022
21:00−4sw81395100 2.8 995778
8 march, mon
mon800:00−6wnw71383100 1.1 997770
03:00−11wsw5128776 1.1 1000266
06:00−11sw6138770 0.0 999420
09:00−9sw7148884 0.0 997680
12:00−5sw81288100 0.3 9961123
15:00−6w81277100 1.0 9971172
18:00−7wnw9148771 0.3 999880
21:00−9w8149086 0.4 1003821
9 march, tue
tue900:00−12wnw61290100 0.1 1005414
03:00−15w499580 0.1 1008171
06:00−18w449836 0.0 101081
09:00−16wnw369552 0.0 1012206
12:00−13wnw359182 0.0 1012425
15:00−11wnw458790 0.1 1013663
18:00−14nw3495100 0.1 101476
21:00−16nw3597100 0.2 101695